Powrót do katalogu

FREGAT DEB

LostUNKNOWN
NORAD 46263·DEBRIS·🇷🇺 Russia

Wystrzelony Jul 18, 2011 z Baikonur Cosmodrome

Loading…

Następne Przeloty (najbliższe 24 godziny)

TLE

NieaktualneSource: Space-Track

Epoka: Sep 21, 2020, 01:23 UTC

1 46263U 11037KZ  20265.05811443  .00030545  00000-0  24880+0 0  9992
2 46263  51.1660 205.7933 2023098 145.5063 229.5396  9.76350696  5236

Śledź FREGAT DEB w czasie rzeczywistym z AllMySat

Download on the App Store